Actual water levels and discharges of Morava river

Lanžhot

Date and time (UTC) H (cm) Q (m³/s)
1. 3. 2021 00:10 256 155
1. 3. 2021 00:00 257 156
28. 2. 2021 23:00 258 157
28. 2. 2021 22:00 260 158
28. 2. 2021 21:00 262 160
28. 2. 2021 20:00 265 163
28. 2. 2021 19:00 266 163
28. 2. 2021 18:00 266 163
28. 2. 2021 17:00 267 164
28. 2. 2021 16:00 269 166
28. 2. 2021 15:00 270 167
28. 2. 2021 14:00 271 168
28. 2. 2021 13:00 273 169
28. 2. 2021 12:00 274 170

H - water level, Q - discharge

Strážnice

Date and time (UTC) H (cm) Q (m³/s)
1. 3. 2021 00:40 351 139
1. 3. 2021 00:00 352 139
28. 2. 2021 23:00 353 140
28. 2. 2021 22:00 354 141
28. 2. 2021 21:00 356 142
28. 2. 2021 20:00 356 142
28. 2. 2021 19:00 358 144
28. 2. 2021 18:00 359 144
28. 2. 2021 17:00 360 145
28. 2. 2021 16:00 362 146
28. 2. 2021 15:00 363 147
28. 2. 2021 14:00 364 148
28. 2. 2021 13:00 364 148
28. 2. 2021 12:00 367 150

H - water level, Q - discharge
more information

Spytihněv

Date and time (UTC) H (cm) Q (m³/s)
1. 3. 2021 00:40 264 148
1. 3. 2021 00:00 266 149
28. 2. 2021 23:00 266 150
28. 2. 2021 22:00 267 151
28. 2. 2021 21:00 268 151
28. 2. 2021 20:00 268 152
28. 2. 2021 19:00 269 153
28. 2. 2021 18:00 271 154
28. 2. 2021 17:00 271 155
28. 2. 2021 16:00 273 157
28. 2. 2021 15:00 274 157
28. 2. 2021 14:00 274 157
28. 2. 2021 13:00 272 156
28. 2. 2021 12:00 278 163

H - water level, Q - discharge

Kroměříž

Date and time (UTC) H (cm) Q (m³/s)
1. 3. 2021 00:40 271 135
1. 3. 2021 00:00 271 135
28. 2. 2021 23:00 272 136
28. 2. 2021 22:00 273 137
28. 2. 2021 21:00 274 138
28. 2. 2021 20:00 275 139
28. 2. 2021 19:00 275 139
28. 2. 2021 18:00 276 140
28. 2. 2021 17:00 276 140
28. 2. 2021 16:00 277 142
28. 2. 2021 15:00 279 144
28. 2. 2021 14:00 280 145
28. 2. 2021 13:00 282 147
28. 2. 2021 12:00 283 148

H - water level, Q - discharge
more information

Olomouc-Nové Sady tok

Date and time (UTC) H (cm) Q (m³/s)
1. 3. 2021 00:40 232 66
1. 3. 2021 00:00 232 66
28. 2. 2021 23:00 233 66
28. 2. 2021 22:00 233 66
28. 2. 2021 21:00 233 66
28. 2. 2021 20:00 233 66
28. 2. 2021 19:00 234 67
28. 2. 2021 18:00 234 67
28. 2. 2021 17:00 235 67
28. 2. 2021 16:00 235 67
28. 2. 2021 15:00 236 68
28. 2. 2021 14:00 237 68
28. 2. 2021 13:00 237 68
28. 2. 2021 12:00 237 68

H - water level, Q - discharge

Moravičany

Date and time (UTC) H (cm) Q (m³/s)
1. 3. 2021 00:40 140 32.2
1. 3. 2021 00:00 139 32
28. 2. 2021 23:00 138 31
28. 2. 2021 22:00 139 32
28. 2. 2021 21:00 140 32
28. 2. 2021 20:00 140 32
28. 2. 2021 19:00 140 32
28. 2. 2021 18:00 139 32
28. 2. 2021 17:00 139 32
28. 2. 2021 16:00 140 32
28. 2. 2021 15:00 141 33
28. 2. 2021 14:00 140 32
28. 2. 2021 13:00 140 32
28. 2. 2021 12:00 142 33

H - water level, Q - discharge
Source data
Labe Basin Vltava Basin Povodí Moravy ČHMÚ